User: anonymous   Login
Location: Geremba
(10.4250°N, 67.2394°W)
Time: 05:56:12
(UTC+00:00)
Language:

SPOT 1/Viking Rocket - Orbit

View from above orbital plane
View from above orbital plane
View from above satellite
View from above satellite

Ground track
Ground track

The orbit data is extracted from the following two-line orbital elements,

1 16615U 86019C   24201.89274265  .00000627  00000-0  24597-3 0  9990
2 16615  98.2756 237.1146 0010552 304.6641 229.0111 14.32580155 10011
Epoch (UTC): 19 July 2024 21:25:32
Eccentricity: 0.0010552
inclination: 98.2756°
perigee height: 775 km
apogee height: 790 km
right ascension of ascending node: 237.1146°
argument of perigee: 304.6641°
revolutions per day: 14.32580155
mean anomaly at epoch: 229.0111°
orbit number at epoch: 1001

The dashed part of the orbit path shows where the satellite is in the earth's shadow,  

DLR